Time,TemperatureF,DewpointF,PressureIn,WindDirection,WindDirectionDegrees,WindSpeedMPH,WindSpeedGustMPH,Humidity,HourlyPrecipIn,Conditions,Clouds,dailyrainin,SoftwareType,DateUTC
2013-03-30 00:00:00,48.9,32.5,30.19,WNW,292,0.0,2.0,53,0.00,,---,0.00,VWS V14.01,2013-03-30 04:00:00,
2013-03-30 00:05:00,48.6,32.7,30.19,WNW,292,0.0,0.0,54,0.00,,---,0.00,VWS V14.01,2013-03-30 04:05:00,
2013-03-30 00:10:00,48.5,32.6,30.19,WNW,292,0.0,2.0,54,0.00,,---,0.00,VWS V14.01,2013-03-30 04:10:00,
2013-03-30 00:15:00,48.2,32.3,30.19,WNW,292,0.0,2.0,54,0.00,,---,0.00,VWS V14.01,2013-03-30 04:15:00,
2013-03-30 00:20:00,47.9,32.5,30.19,WNW,292,0.0,1.0,55,0.00,,---,0.00,VWS V14.01,2013-03-30 04:20:00,
2013-03-30 00:25:00,47.7,32.8,30.19,WNW,292,0.0,1.0,56,0.00,,---,0.00,VWS V14.01,2013-03-30 04:25:00,
2013-03-30 00:30:00,47.4,32.5,30.19,WNW,292,0.0,2.0,56,0.00,,---,0.00,VWS V14.01,2013-03-30 04:30:00,
2013-03-30 00:35:00,47.3,32.4,30.19,WNW,292,0.0,1.0,56,0.00,,---,0.00,VWS V14.01,2013-03-30 04:35:00,
2013-03-30 00:40:00,47.0,32.6,30.19,WNW,292,0.0,1.0,57,0.00,,---,0.00,VWS V14.01,2013-03-30 04:40:00,
2013-03-30 00:45:00,46.8,32.4,30.19,WNW,292,0.0,1.0,57,0.00,,---,0.00,VWS V14.01,2013-03-30 04:45:00,
2013-03-30 00:50:00,46.7,32.7,30.19,WNW,292,0.0,1.0,58,0.00,,---,0.00,VWS V14.01,2013-03-30 04:50:00,
2013-03-30 00:55:00,46.4,32.4,30.19,WNW,292,0.0,1.0,58,0.00,,---,0.00,VWS V14.01,2013-03-30 04:55:00,
2013-03-30 01:00:00,46.2,32.2,30.18,WNW,292,0.0,1.0,58,0.00,,---,0.00,VWS V14.01,2013-03-30 05:00:00,
2013-03-30 01:05:00,46.1,32.2,30.18,WNW,292,0.0,0.0,58,0.00,,---,0.00,VWS V14.01,2013-03-30 05:05:00,
2013-03-30 01:10:00,45.8,32.3,30.18,WNW,292,0.0,1.0,59,0.00,,---,0.00,VWS V14.01,2013-03-30 05:10:00,
2013-03-30 01:15:00,45.7,32.2,30.18,WNW,292,0.0,1.0,59,0.00,,---,0.00,VWS V14.01,2013-03-30 05:15:00,
2013-03-30 01:20:00,45.5,32.0,30.17,WNW,292,0.0,0.0,59,0.00,,---,0.00,VWS V14.01,2013-03-30 05:20:00,
2013-03-30 01:25:00,45.4,32.3,30.18,WNW,292,0.0,1.0,60,0.00,,---,0.00,VWS V14.01,2013-03-30 05:25:00,
2013-03-30 01:30:00,45.1,32.5,30.18,WNW,292,0.0,1.0,61,0.00,,---,0.00,VWS V14.01,2013-03-30 05:30:00,
2013-03-30 01:35:00,44.9,32.3,30.17,WNW,292,0.0,0.0,61,0.00,,---,0.00,VWS V14.01,2013-03-30 05:35:00,
2013-03-30 01:40:00,44.9,32.3,30.17,WNW,292,0.0,0.0,61,0.00,,---,0.00,VWS V14.01,2013-03-30 05:40:00,
2013-03-30 01:45:00,44.8,32.2,30.17,WNW,292,0.0,2.0,61,0.00,,---,0.00,VWS V14.01,2013-03-30 05:45:00,
2013-03-30 01:50:00,44.8,32.6,30.17,WNW,292,0.0,1.0,62,0.00,,---,0.00,VWS V14.01,2013-03-30 05:50:00,
2013-03-30 01:55:00,44.6,32.4,30.17,WNW,292,0.0,1.0,62,0.00,,---,0.00,VWS V14.01,2013-03-30 05:55:00,
2013-03-30 02:00:00,44.6,32.0,30.17,WNW,292,0.0,1.0,61,0.00,,---,0.00,VWS V14.01,2013-03-30 06:00:00,
2013-03-30 02:05:00,44.6,32.0,30.17,WNW,292,0.0,0.0,61,0.00,,---,0.00,VWS V14.01,2013-03-30 06:05:00,
2013-03-30 02:10:00,44.5,32.3,30.17,WNW,292,0.0,0.0,62,0.00,,---,0.00,VWS V14.01,2013-03-30 06:10:00,
2013-03-30 02:15:00,44.3,32.1,30.17,WNW,292,0.0,0.0,62,0.00,,---,0.00,VWS V14.01,2013-03-30 06:15:00,
2013-03-30 02:20:00,44.2,32.4,30.17,WNW,292,0.0,0.0,63,0.00,,---,0.00,VWS V14.01,2013-03-30 06:20:00,
2013-03-30 02:25:00,43.9,32.5,30.17,WNW,292,0.0,0.0,64,0.00,,---,0.00,VWS V14.01,2013-03-30 06:25:00,
2013-03-30 02:30:00,43.6,32.2,30.17,WNW,292,1.0,1.0,64,0.00,,---,0.00,VWS V14.01,2013-03-30 06:30:00,
2013-03-30 02:35:00,43.5,32.5,30.17,WSW,253,0.0,2.0,65,0.00,,---,0.00,VWS V14.01,2013-03-30 06:35:00,
2013-03-30 02:40:00,43.2,32.2,30.18,WSW,253,0.0,2.0,65,0.00,,---,0.00,VWS V14.01,2013-03-30 06:40:00,
2013-03-30 02:45:00,43.1,32.2,30.18,WSW,253,0.0,2.0,65,0.00,,---,0.00,VWS V14.01,2013-03-30 06:45:00,
2013-03-30 02:50:00,42.9,32.3,30.18,West,263,0.0,2.0,66,0.00,,---,0.00,VWS V14.01,2013-03-30 06:50:00,
2013-03-30 02:55:00,42.8,32.6,30.18,WNW,285,0.0,3.0,67,0.00,,---,0.00,VWS V14.01,2013-03-30 06:55:00,
2013-03-30 03:00:00,42.6,32.4,30.18,WNW,290,0.0,3.0,67,0.00,,---,0.00,VWS V14.01,2013-03-30 07:00:00,
2013-03-30 03:05:00,42.5,32.7,30.18,WNW,290,0.0,2.0,68,0.00,,---,0.00,VWS V14.01,2013-03-30 07:05:00,
2013-03-30 03:10:00,42.5,32.7,30.18,WNW,293,0.0,3.0,68,0.00,,---,0.00,VWS V14.01,2013-03-30 07:10:00,
2013-03-30 03:15:00,42.5,32.7,30.17,WNW,293,0.0,3.0,68,0.00,,---,0.00,VWS V14.01,2013-03-30 07:15:00,
2013-03-30 03:20:00,42.5,32.7,30.17,WNW,293,0.0,3.0,68,0.00,,---,0.00,VWS V14.01,2013-03-30 07:20:00,
2013-03-30 03:25:00,42.6,32.8,30.17,WNW,293,0.0,3.0,68,0.00,,---,0.00,VWS V14.01,2013-03-30 07:25:00,
2013-03-30 03:30:00,42.6,32.8,30.17,WNW,293,1.0,3.0,68,0.00,,---,0.00,VWS V14.01,2013-03-30 07:30:00,
2013-03-30 03:35:00,42.8,33.0,30.18,WNW,291,0.0,3.0,68,0.00,,---,0.00,VWS V14.01,2013-03-30 07:35:00,
2013-03-30 03:40:00,42.9,33.1,30.17,WNW,292,0.0,4.0,68,0.00,,---,0.00,VWS V14.01,2013-03-30 07:40:00,
2013-03-30 03:45:00,43.1,33.3,30.17,WNW,290,0.0,4.0,68,0.00,,---,0.00,VWS V14.01,2013-03-30 07:45:00,
2013-03-30 03:50:00,43.1,33.3,30.17,WNW,290,0.0,1.0,68,0.00,,---,0.00,VWS V14.01,2013-03-30 07:50:00,
2013-03-30 03:55:00,43.2,33.0,30.17,WNW,290,0.0,1.0,67,0.00,,---,0.00,VWS V14.01,2013-03-30 07:55:00,
2013-03-30 04:00:00,43.2,33.0,30.17,WNW,290,0.0,2.0,67,0.00,,---,0.00,VWS V14.01,2013-03-30 08:00:00,
2013-03-30 04:05:00,43.2,33.0,30.17,WNW,290,0.0,0.0,67,0.00,,---,0.00,VWS V14.01,2013-03-30 08:05:00,
2013-03-30 04:10:00,43.2,33.0,30.17,WNW,290,0.0,0.0,67,0.00,,---,0.00,VWS V14.01,2013-03-30 08:10:00,
2013-03-30 04:15:00,43.1,32.9,30.16,WNW,290,0.0,0.0,67,0.00,,---,0.00,VWS V14.01,2013-03-30 08:15:00,
2013-03-30 04:20:00,43.1,32.9,30.16,WNW,290,0.0,0.0,67,0.00,,---,0.00,VWS V14.01,2013-03-30 08:20:00,
2013-03-30 04:25:00,42.9,32.7,30.16,WNW,290,0.0,0.0,67,0.00,,---,0.00,VWS V14.01,2013-03-30 08:25:00,
2013-03-30 04:30:00,42.8,32.6,30.16,WNW,290,0.0,0.0,67,0.00,,---,0.00,VWS V14.01,2013-03-30 08:30:00,
2013-03-30 04:35:00,42.6,32.4,30.17,WNW,290,0.0,0.0,67,0.00,,---,0.00,VWS V14.01,2013-03-30 08:35:00,
2013-03-30 04:40:00,42.3,32.1,30.17,WNW,290,0.0,0.0,67,0.00,,---,0.00,VWS V14.01,2013-03-30 08:40:00,
2013-03-30 04:45:00,42.2,32.0,30.17,WNW,290,0.0,0.0,67,0.00,,---,0.00,VWS V14.01,2013-03-30 08:45:00,
2013-03-30 04:50:00,42.1,32.0,30.17,WNW,290,0.0,0.0,67,0.00,,---,0.00,VWS V14.01,2013-03-30 08:50:00,
2013-03-30 04:55:00,41.8,31.7,30.17,WNW,290,0.0,0.0,67,0.00,,---,0.00,VWS V14.01,2013-03-30 08:55:00,
2013-03-30 05:00:00,41.6,31.8,30.17,WNW,290,0.0,0.0,68,0.00,,---,0.00,VWS V14.01,2013-03-30 09:00:00,
2013-03-30 05:05:00,41.5,31.7,30.17,WNW,290,0.0,0.0,68,0.00,,---,0.00,VWS V14.01,2013-03-30 09:05:00,
2013-03-30 05:10:00,41.3,31.5,30.17,WNW,290,0.0,0.0,68,0.00,,---,0.00,VWS V14.01,2013-03-30 09:10:00,
2013-03-30 05:15:00,41.2,31.8,30.17,WNW,290,0.0,0.0,69,0.00,,---,0.00,VWS V14.01,2013-03-30 09:15:00,
2013-03-30 05:20:00,41.2,31.8,30.17,WNW,290,0.0,0.0,69,0.00,,---,0.00,VWS V14.01,2013-03-30 09:20:00,
2013-03-30 05:25:00,41.1,32.1,30.17,WNW,290,0.0,1.0,70,0.00,,---,0.00,VWS V14.01,2013-03-30 09:25:00,
2013-03-30 05:30:00,40.9,31.9,30.18,WNW,290,0.0,1.0,70,0.00,,---,0.00,VWS V14.01,2013-03-30 09:30:00,
2013-03-30 05:34:00,40.9,31.9,30.18,WNW,290,0.0,0.0,70,0.00,,---,0.00,VWS V14.01,2013-03-30 09:34:00,
2013-03-30 05:39:00,40.8,31.8,30.18,WNW,290,0.0,0.0,70,0.00,,---,0.00,VWS V14.01,2013-03-30 09:39:00,
2013-03-30 05:44:00,40.6,31.6,30.18,WNW,290,0.0,0.0,70,0.00,,---,0.00,VWS V14.01,2013-03-30 09:44:00,
2013-03-30 05:49:00,40.5,31.5,30.18,WNW,290,0.0,0.0,70,0.00,,---,0.00,VWS V14.01,2013-03-30 09:49:00,
2013-03-30 05:54:00,40.5,31.5,30.18,WNW,290,0.0,0.0,70,0.00,,---,0.00,VWS V14.01,2013-03-30 09:54:00,
2013-03-30 05:59:00,40.2,31.2,30.18,WNW,290,0.0,0.0,70,0.00,,---,0.00,VWS V14.01,2013-03-30 09:59:00,
2013-03-30 06:04:00,40.1,31.1,30.18,WNW,290,0.0,0.0,70,0.00,,---,0.00,VWS V14.01,2013-03-30 10:04:00,
2013-03-30 06:09:00,39.9,30.9,30.18,WNW,290,0.0,1.0,70,0.00,,---,0.00,VWS V14.01,2013-03-30 10:09:00,
2013-03-30 06:14:00,39.8,30.8,30.19,WNW,290,0.0,1.0,70,0.00,,---,0.00,VWS V14.01,2013-03-30 10:14:00,
2013-03-30 06:19:00,39.6,30.6,30.19,WNW,290,0.0,0.0,70,0.00,,---,0.00,VWS V14.01,2013-03-30 10:19:00,
2013-03-30 06:24:00,39.5,30.5,30.19,WNW,290,0.0,0.0,70,0.00,,---,0.00,VWS V14.01,2013-03-30 10:24:00,
2013-03-30 06:29:00,39.3,30.4,30.19,WNW,290,0.0,0.0,70,0.00,,---,0.00,VWS V14.01,2013-03-30 10:29:00,
2013-03-30 06:34:00,39.1,30.2,30.20,WNW,290,0.0,1.0,70,0.00,,---,0.00,VWS V14.01,2013-03-30 10:34:00,
2013-03-30 06:39:00,38.9,30.0,30.20,WNW,290,0.0,1.0,70,0.00,,---,0.00,VWS V14.01,2013-03-30 10:39:00,
2013-03-30 06:44:00,38.8,29.9,30.20,WNW,290,0.0,1.0,70,0.00,,---,0.00,VWS V14.01,2013-03-30 10:44:00,
2013-03-30 06:49:00,38.5,29.9,30.20,WNW,290,0.0,0.0,71,0.00,,---,0.00,VWS V14.01,2013-03-30 10:49:00,
2013-03-30 06:54:00,38.3,29.7,30.20,WNW,290,0.0,0.0,71,0.00,,---,0.00,VWS V14.01,2013-03-30 10:54:00,
2013-03-30 06:59:00,38.0,29.5,30.20,WNW,290,0.0,0.0,71,0.00,,---,0.00,VWS V14.01,2013-03-30 10:59:00,
2013-03-30 07:04:00,37.9,29.7,30.20,WNW,290,0.0,0.0,72,0.00,,---,0.00,VWS V14.01,2013-03-30 11:04:00,
2013-03-30 07:09:00,37.8,29.9,30.21,WNW,290,0.0,0.0,73,0.00,,---,0.00,VWS V14.01,2013-03-30 11:09:00,
2013-03-30 07:14:00,37.5,30.0,30.20,WNW,290,0.0,0.0,74,0.00,,---,0.00,VWS V14.01,2013-03-30 11:14:00,
2013-03-30 07:19:00,37.3,30.1,30.21,WNW,290,0.0,0.0,75,0.00,,---,0.00,VWS V14.01,2013-03-30 11:19:00,
2013-03-30 07:24:00,37.2,30.0,30.21,WNW,290,0.0,0.0,75,0.00,,---,0.00,VWS V14.01,2013-03-30 11:24:00,
2013-03-30 07:29:00,37.0,29.8,30.21,WNW,290,0.0,0.0,75,0.00,,---,0.00,VWS V14.01,2013-03-30 11:29:00,
2013-03-30 07:34:00,36.9,29.7,30.21,WNW,290,0.0,0.0,75,0.00,,---,0.00,VWS V14.01,2013-03-30 11:34:00,
2013-03-30 07:39:00,36.6,29.4,30.22,WNW,290,0.0,0.0,75,0.00,,---,0.00,VWS V14.01,2013-03-30 11:39:00,
2013-03-30 07:44:00,36.5,29.7,30.22,WNW,290,0.0,0.0,76,0.00,,---,0.00,VWS V14.01,2013-03-30 11:44:00,
2013-03-30 07:49:00,36.5,29.7,30.22,WNW,290,0.0,0.0,76,0.00,,---,0.00,VWS V14.01,2013-03-30 11:49:00,
2013-03-30 07:54:00,36.3,29.8,30.22,WNW,290,0.0,0.0,77,0.00,,---,0.00,VWS V14.01,2013-03-30 11:54:00,
2013-03-30 07:59:00,36.2,29.7,30.22,WNW,290,0.0,0.0,77,0.00,,---,0.00,VWS V14.01,2013-03-30 11:59:00,
2013-03-30 08:04:00,36.0,29.5,30.22,WNW,290,0.0,0.0,77,0.00,,---,0.00,VWS V14.01,2013-03-30 12:04:00,
2013-03-30 08:09:00,36.0,29.8,30.22,WNW,290,0.0,0.0,78,0.00,,---,0.00,VWS V14.01,2013-03-30 12:09:00,
2013-03-30 08:14:00,36.0,29.8,30.22,WNW,290,0.0,1.0,78,0.00,,---,0.00,VWS V14.01,2013-03-30 12:14:00,
2013-03-30 08:19:00,36.2,30.3,30.22,WNW,290,0.0,0.0,79,0.00,,---,0.00,VWS V14.01,2013-03-30 12:19:00,
2013-03-30 08:24:00,36.2,30.3,30.22,WNW,290,0.0,0.0,79,0.00,,---,0.00,VWS V14.01,2013-03-30 12:24:00,
2013-03-30 08:29:00,36.5,30.9,30.22,WNW,290,0.0,0.0,80,0.00,,---,0.00,VWS V14.01,2013-03-30 12:29:00,
2013-03-30 08:34:00,36.6,31.0,30.22,WNW,290,0.0,0.0,80,0.00,,---,0.00,VWS V14.01,2013-03-30 12:34:00,
2013-03-30 08:39:00,36.9,31.3,30.22,WNW,290,0.0,0.0,80,0.00,,---,0.00,VWS V14.01,2013-03-30 12:39:00,
2013-03-30 08:44:00,37.2,31.9,30.23,WNW,290,0.0,0.0,81,0.00,,---,0.00,VWS V14.01,2013-03-30 12:44:00,
2013-03-30 08:49:00,37.5,32.2,30.23,WNW,290,0.0,1.0,81,0.00,,---,0.00,VWS V14.01,2013-03-30 12:49:00,
2013-03-30 08:54:00,38.0,32.4,30.23,WNW,295,3.0,3.0,80,0.00,,---,0.00,VWS V14.01,2013-03-30 12:54:00,
2013-03-30 08:59:00,38.8,32.5,30.23,NNE,13,4.0,4.0,78,0.00,,---,0.00,VWS V14.01,2013-03-30 12:59:00,
2013-03-30 09:04:00,40.3,32.7,30.22,North,10,1.0,5.0,74,0.00,,---,0.00,VWS V14.01,2013-03-30 13:04:00,
2013-03-30 09:09:00,41.5,31.7,30.22,North,9,0.0,5.0,68,0.00,,---,0.00,VWS V14.01,2013-03-30 13:09:00,
2013-03-30 09:14:00,42.2,31.7,30.23,North,9,0.0,5.0,66,0.00,,---,0.00,VWS V14.01,2013-03-30 13:14:00,
2013-03-30 09:19:00,42.8,31.1,30.23,North,9,2.0,3.0,63,0.00,,---,0.00,VWS V14.01,2013-03-30 13:19:00,
2013-03-30 09:24:00,43.6,30.6,30.23,North,1,2.0,5.0,60,0.00,,---,0.00,VWS V14.01,2013-03-30 13:24:00,
2013-03-30 09:29:00,44.3,30.9,30.22,North,1,0.0,5.0,59,0.00,,---,0.00,VWS V14.01,2013-03-30 13:29:00,
2013-03-30 09:34:00,45.2,31.3,30.22,North,1,0.0,2.0,58,0.00,,---,0.00,VWS V14.01,2013-03-30 13:34:00,
2013-03-30 09:39:00,46.0,31.6,30.22,North,2,0.0,2.0,57,0.00,,---,0.00,VWS V14.01,2013-03-30 13:39:00,
2013-03-30 09:44:00,46.8,31.0,30.21,North,2,1.0,2.0,54,0.00,,---,0.00,VWS V14.01,2013-03-30 13:44:00,
2013-03-30 09:49:00,47.4,31.6,30.21,North,2,0.0,1.0,54,0.00,,---,0.00,VWS V14.01,2013-03-30 13:49:00,
2013-03-30 09:54:00,48.0,31.2,30.21,SSE,162,2.0,4.0,52,0.00,,---,0.00,VWS V14.01,2013-03-30 13:54:00,
2013-03-30 09:59:00,48.9,31.1,30.21,SSE,162,0.0,4.0,50,0.00,,---,0.00,VWS V14.01,2013-03-30 13:59:00,
2013-03-30 10:04:00,49.4,30.5,30.21,NNE,20,1.0,5.0,48,0.00,,---,0.00,VWS V14.01,2013-03-30 14:04:00,
2013-03-30 10:09:00,49.6,30.2,30.21,North,353,4.0,5.0,47,0.00,,---,0.00,VWS V14.01,2013-03-30 14:09:00,
2013-03-30 10:14:00,50.1,29.6,30.21,South,173,0.0,6.0,45,0.00,,---,0.00,VWS V14.01,2013-03-30 14:14:00,
2013-03-30 10:19:00,50.5,30.0,30.20,South,178,0.0,3.0,45,0.00,,---,0.00,VWS V14.01,2013-03-30 14:19:00,
2013-03-30 10:24:00,51.0,29.9,30.20,NNE,13,2.0,6.0,44,0.00,,---,0.00,VWS V14.01,2013-03-30 14:24:00,
2013-03-30 10:29:00,51.4,30.2,30.20,NNE,25,1.0,6.0,44,0.00,,---,0.00,VWS V14.01,2013-03-30 14:29:00,
2013-03-30 10:34:00,52.0,31.3,30.20,North,355,0.0,5.0,45,0.00,,---,0.00,VWS V14.01,2013-03-30 14:34:00,
2013-03-30 10:39:00,53.2,29.5,30.20,SSE,160,0.0,5.0,40,0.00,,---,0.00,VWS V14.01,2013-03-30 14:39:00,
2013-03-30 10:44:00,53.9,30.8,30.19,NE,47,1.0,5.0,41,0.00,,---,0.00,VWS V14.01,2013-03-30 14:44:00,
2013-03-30 10:49:00,54.5,28.8,30.19,SE,135,3.0,3.0,37,0.00,,---,0.00,VWS V14.01,2013-03-30 14:49:00,
2013-03-30 10:54:00,55.0,27.9,30.19,SE,133,0.0,4.0,35,0.00,,---,0.00,VWS V14.01,2013-03-30 14:54:00,
2013-03-30 10:59:00,55.7,31.8,30.19,NNE,32,5.0,5.0,40,0.00,,---,0.00,VWS V14.01,2013-03-30 14:59:00,
2013-03-30 11:04:00,56.3,26.8,30.19,ENE,75,1.0,3.0,32,0.00,,---,0.00,VWS V14.01,2013-03-30 15:04:00,
2013-03-30 11:09:00,56.5,27.0,30.19,East,80,0.0,3.0,32,0.00,,---,0.00,VWS V14.01,2013-03-30 15:09:00,
2013-03-30 11:14:00,57.2,26.9,30.19,NNE,29,2.0,3.0,31,0.00,,---,0.00,VWS V14.01,2013-03-30 15:14:00,
2013-03-30 11:19:00,57.2,24.4,30.19,NNW,332,1.0,7.0,28,0.00,,---,0.00,VWS V14.01,2013-03-30 15:19:00,
2013-03-30 11:24:00,57.6,25.6,30.19,ESE,122,1.0,7.0,29,0.00,,---,0.00,VWS V14.01,2013-03-30 15:24:00,
2013-03-30 11:29:00,57.5,24.7,30.18,SSE,158,2.0,7.0,28,0.00,,---,0.00,VWS V14.01,2013-03-30 15:29:00,
2013-03-30 11:34:00,57.6,24.8,30.18,South,177,0.0,6.0,28,0.00,,---,0.00,VWS V14.01,2013-03-30 15:34:00,
2013-03-30 11:39:00,57.8,24.9,30.17,East,91,0.0,6.0,28,0.00,,---,0.00,VWS V14.01,2013-03-30 15:39:00,
2013-03-30 11:44:00,58.1,27.6,30.17,NNW,339,0.0,6.0,31,0.00,,---,0.00,VWS V14.01,2013-03-30 15:44:00,
2013-03-30 11:49:00,58.6,24.8,30.17,NNE,33,2.0,2.0,27,0.00,,---,0.00,VWS V14.01,2013-03-30 15:49:00,
2013-03-30 11:54:00,58.7,24.8,30.17,East,100,0.0,3.0,27,0.00,,---,0.00,VWS V14.01,2013-03-30 15:54:00,
2013-03-30 11:59:00,59.2,26.1,30.17,NNW,343,0.0,10.0,28,0.00,,---,0.00,VWS V14.01,2013-03-30 15:59:00,
2013-03-30 12:04:00,59.6,27.3,30.17,NNW,329,0.0,4.0,29,0.00,,---,0.00,VWS V14.01,2013-03-30 16:04:00,
2013-03-30 12:09:00,60.1,26.0,30.17,SSW,203,0.0,4.0,27,0.00,,---,0.00,VWS V14.01,2013-03-30 16:09:00,
2013-03-30 12:14:00,59.6,25.6,30.16,SSE,147,0.0,4.0,27,0.00,,---,0.00,VWS V14.01,2013-03-30 16:14:00,
2013-03-30 12:19:00,59.9,27.6,30.16,NW,320,1.0,4.0,29,0.00,,---,0.00,VWS V14.01,2013-03-30 16:19:00,
2013-03-30 12:24:00,60.2,26.1,30.16,SSW,209,0.0,5.0,27,0.00,,---,0.00,VWS V14.01,2013-03-30 16:24:00,
2013-03-30 12:29:00,60.2,25.2,30.16,SSE,165,0.0,5.0,26,0.00,,---,0.00,VWS V14.01,2013-03-30 16:29:00,
2013-03-30 12:34:00,60.5,27.3,30.16,SSW,211,0.0,3.0,28,0.00,,---,0.00,VWS V14.01,2013-03-30 16:34:00,
2013-03-30 12:39:00,60.1,29.4,30.15,NW,309,0.0,4.0,31,0.00,,---,0.00,VWS V14.01,2013-03-30 16:39:00,
2013-03-30 12:44:00,60.7,27.4,30.15,NNW,344,0.0,5.0,28,0.00,,---,0.00,VWS V14.01,2013-03-30 16:44:00,
2013-03-30 12:49:00,61.0,27.7,30.14,ENE,69,2.0,2.0,28,0.00,,---,0.00,VWS V14.01,2013-03-30 16:49:00,
2013-03-30 12:54:00,60.5,27.3,30.14,NNW,330,1.0,6.0,28,0.00,,---,0.00,VWS V14.01,2013-03-30 16:54:00,
2013-03-30 12:59:00,61.0,27.7,30.14,ESE,116,2.0,6.0,28,0.00,,---,0.00,VWS V14.01,2013-03-30 16:59:00,
2013-03-30 13:04:00,61.5,28.1,30.14,SSE,165,3.0,3.0,28,0.00,,---,0.00,VWS V14.01,2013-03-30 17:04:00,
2013-03-30 13:09:00,61.2,27.0,30.15,SW,217,1.0,3.0,27,0.00,,---,0.00,VWS V14.01,2013-03-30 17:09:00,
2013-03-30 13:14:00,61.2,27.9,30.14,SE,130,0.0,3.0,28,0.00,,---,0.00,VWS V14.01,2013-03-30 17:14:00,
2013-03-30 13:19:00,61.6,28.2,30.14,SW,222,0.0,1.0,28,0.00,,---,0.00,VWS V14.01,2013-03-30 17:19:00,
2013-03-30 13:24:00,62.1,28.6,30.13,ESE,120,0.0,3.0,28,0.00,,---,0.00,VWS V14.01,2013-03-30 17:24:00,
2013-03-30 13:29:00,62.4,28.9,30.13,South,188,1.0,3.0,28,0.00,,---,0.00,VWS V14.01,2013-03-30 17:29:00,
2013-03-30 13:34:00,62.4,32.9,30.13,WSW,253,0.0,3.0,33,0.00,,---,0.00,VWS V14.01,2013-03-30 17:34:00,
2013-03-30 13:39:00,62.3,31.3,30.13,West,277,0.0,3.0,31,0.00,,---,0.00,VWS V14.01,2013-03-30 17:39:00,
2013-03-30 13:44:00,62.4,28.9,30.12,West,275,0.0,3.0,28,0.00,,---,0.00,VWS V14.01,2013-03-30 17:44:00,
2013-03-30 13:49:00,63.4,31.5,30.12,NW,308,10.0,11.0,30,0.00,,---,0.00,VWS V14.01,2013-03-30 17:49:00,
2013-03-30 13:54:00,63.7,30.0,30.12,WNW,295,5.0,11.0,28,0.00,,---,0.00,VWS V14.01,2013-03-30 17:54:00,
2013-03-30 13:59:00,63.1,32.0,30.12,NW,308,1.0,11.0,31,0.00,,---,0.00,VWS V14.01,2013-03-30 17:59:00,
2013-03-30 14:04:00,62.7,35.4,30.11,NW,305,2.0,9.0,36,0.00,,---,0.00,VWS V14.01,2013-03-30 18:04:00,
2013-03-30 14:09:00,62.6,32.3,30.11,WNW,303,3.0,12.0,32,0.00,,---,0.00,VWS V14.01,2013-03-30 18:09:00,
2013-03-30 14:14:00,62.9,34.8,30.11,NW,306,6.0,12.0,35,0.00,,---,0.00,VWS V14.01,2013-03-30 18:14:00,
2013-03-30 14:19:00,63.2,32.1,30.11,West,280,3.0,9.0,31,0.00,,---,0.00,VWS V14.01,2013-03-30 18:19:00,
2013-03-30 14:24:00,63.5,32.3,30.10,WNW,295,0.0,9.0,31,0.00,,---,0.00,VWS V14.01,2013-03-30 18:24:00,
2013-03-30 14:29:00,62.9,29.3,30.10,WNW,295,0.0,9.0,28,0.00,,---,0.00,VWS V14.01,2013-03-30 18:29:00,
2013-03-30 14:34:00,62.6,30.8,30.10,WNW,298,2.0,3.0,30,0.00,,---,0.00,VWS V14.01,2013-03-30 18:34:00,
2013-03-30 14:39:00,63.7,35.6,30.09,WNW,297,2.0,10.0,35,0.00,,---,0.00,VWS V14.01,2013-03-30 18:39:00,
2013-03-30 14:44:00,64.0,34.3,30.09,WNW,299,5.0,10.0,33,0.00,,---,0.00,VWS V14.01,2013-03-30 18:44:00,
2013-03-30 14:49:00,63.5,32.3,30.09,NW,312,3.0,9.0,31,0.00,,---,0.00,VWS V14.01,2013-03-30 18:49:00,
2013-03-30 14:54:00,63.4,33.0,30.09,North,7,3.0,9.0,32,0.00,,---,0.00,VWS V14.01,2013-03-30 18:54:00,
2013-03-30 14:59:00,65.0,32.8,30.08,SW,235,0.0,11.0,30,0.00,,---,0.00,VWS V14.01,2013-03-30 18:59:00,
2013-03-30 15:04:00,64.8,31.0,30.08,WSW,237,0.0,5.0,28,0.00,,---,0.00,VWS V14.01,2013-03-30 19:04:00,
2013-03-30 15:09:00,65.0,31.1,30.08,East,91,1.0,5.0,28,0.00,,---,0.00,VWS V14.01,2013-03-30 19:09:00,
2013-03-30 15:14:00,64.5,30.7,30.08,NW,322,1.0,5.0,28,0.00,,---,0.00,VWS V14.01,2013-03-30 19:14:00,
2013-03-30 15:19:00,65.0,32.8,30.08,WSW,249,2.0,6.0,30,0.00,,---,0.00,VWS V14.01,2013-03-30 19:19:00,
2013-03-30 15:24:00,64.7,30.9,30.08,West,268,1.0,6.0,28,0.00,,---,0.00,VWS V14.01,2013-03-30 19:24:00,
2013-03-30 15:29:00,65.0,33.7,30.08,WNW,285,3.0,9.0,31,0.00,,---,0.00,VWS V14.01,2013-03-30 19:29:00,
2013-03-30 15:34:00,64.7,31.7,30.07,SSW,194,0.0,3.0,29,0.00,,---,0.00,VWS V14.01,2013-03-30 19:34:00,
2013-03-30 15:39:00,64.2,31.3,30.08,SSE,155,3.0,4.0,29,0.00,,---,0.00,VWS V14.01,2013-03-30 19:39:00,
2013-03-30 15:44:00,64.0,32.0,30.07,South,183,0.0,4.0,30,0.00,,---,0.00,VWS V14.01,2013-03-30 19:44:00,
2013-03-30 15:49:00,64.8,32.7,30.07,WNW,301,3.0,10.0,30,0.00,,---,0.00,VWS V14.01,2013-03-30 19:49:00,
2013-03-30 15:54:00,64.7,30.9,30.07,West,274,5.0,10.0,28,0.00,,---,0.00,VWS V14.01,2013-03-30 19:54:00,
2013-03-30 15:59:00,64.7,31.7,30.07,WNW,290,2.0,10.0,29,0.00,,---,0.00,VWS V14.01,2013-03-30 19:59:00,
2013-03-30 16:04:00,64.2,30.4,30.07,SSW,211,0.0,4.0,28,0.00,,---,0.00,VWS V14.01,2013-03-30 20:04:00,
2013-03-30 16:09:00,63.9,30.2,30.07,North,7,3.0,7.0,28,0.00,,---,0.00,VWS V14.01,2013-03-30 20:09:00,
2013-03-30 16:14:00,64.2,33.8,30.07,North,355,0.0,10.0,32,0.00,,---,0.00,VWS V14.01,2013-03-30 20:14:00,
2013-03-30 16:19:00,64.5,32.4,30.07,SSE,159,3.0,6.0,30,0.00,,---,0.00,VWS V14.01,2013-03-30 20:19:00,
2013-03-30 16:24:00,64.7,33.4,30.07,WNW,290,6.0,6.0,31,0.00,,---,0.00,VWS V14.01,2013-03-30 20:24:00,
2013-03-30 16:29:00,64.8,31.8,30.07,SSW,210,0.0,6.0,29,0.00,,---,0.00,VWS V14.01,2013-03-30 20:29:00,
2013-03-30 16:34:00,65.0,32.0,30.06,WSW,245,0.0,1.0,29,0.00,,---,0.00,VWS V14.01,2013-03-30 20:34:00,
2013-03-30 16:39:00,65.2,33.0,30.06,SSE,159,0.0,2.0,30,0.00,,---,0.00,VWS V14.01,2013-03-30 20:39:00,
2013-03-30 16:44:00,65.2,32.2,30.06,SW,214,0.0,4.0,29,0.00,,---,0.00,VWS V14.01,2013-03-30 20:44:00,
2013-03-30 16:49:00,65.3,33.9,30.06,WNW,297,1.0,6.0,31,0.00,,---,0.00,VWS V14.01,2013-03-30 20:49:00,
2013-03-30 16:54:00,65.3,33.9,30.06,West,276,4.0,10.0,31,0.00,,---,0.00,VWS V14.01,2013-03-30 20:54:00,
2013-03-30 16:59:00,65.3,31.4,30.05,West,261,0.0,10.0,28,0.00,,---,0.00,VWS V14.01,2013-03-30 20:59:00,
2013-03-30 17:04:00,65.5,32.4,30.06,WNW,285,3.0,5.0,29,0.00,,---,0.00,VWS V14.01,2013-03-30 21:04:00,
2013-03-30 17:09:00,65.3,33.9,30.06,NW,320,0.0,10.0,31,0.00,,---,0.00,VWS V14.01,2013-03-30 21:09:00,
2013-03-30 17:14:00,65.2,33.8,30.06,West,262,0.0,10.0,31,0.00,,---,0.00,VWS V14.01,2013-03-30 21:14:00,
2013-03-30 17:19:00,65.0,32.8,30.06,SSW,210,0.0,2.0,30,0.00,,---,0.00,VWS V14.01,2013-03-30 21:19:00,
2013-03-30 17:24:00,64.8,31.8,30.06,SSW,210,0.0,2.0,29,0.00,,---,0.00,VWS V14.01,2013-03-30 21:24:00,
2013-03-30 17:29:00,64.8,31.8,30.05,SSW,210,0.0,2.0,29,0.00,,---,0.00,VWS V14.01,2013-03-30 21:29:00,
2013-03-30 17:34:00,64.8,31.8,30.05,SSW,210,0.0,1.0,29,0.00,,---,0.00,VWS V14.01,2013-03-30 21:34:00,
2013-03-30 17:39:00,64.5,32.4,30.05,SSW,210,1.0,1.0,30,0.00,,---,0.00,VWS V14.01,2013-03-30 21:39:00,
2013-03-30 17:44:00,64.3,33.0,30.06,SSW,210,0.0,1.0,31,0.00,,---,0.00,VWS V14.01,2013-03-30 21:44:00,
2013-03-30 17:49:00,64.2,33.0,30.06,West,260,0.0,3.0,31,0.00,,---,0.00,VWS V14.01,2013-03-30 21:49:00,
2013-03-30 17:54:00,64.0,32.8,30.06,West,268,0.0,4.0,31,0.00,,---,0.00,VWS V14.01,2013-03-30 21:54:00,
2013-03-30 17:59:00,63.9,32.7,30.06,West,260,0.0,5.0,31,0.00,,---,0.00,VWS V14.01,2013-03-30 21:59:00,
2013-03-30 18:04:00,63.7,33.3,30.06,WSW,243,2.0,5.0,32,0.00,,---,0.00,VWS V14.01,2013-03-30 22:04:00,
2013-03-30 18:09:00,63.5,32.3,30.06,West,276,0.0,5.0,31,0.00,,---,0.00,VWS V14.01,2013-03-30 22:09:00,
2013-03-30 18:14:00,63.7,33.3,30.06,WNW,288,1.0,5.0,32,0.00,,---,0.00,VWS V14.01,2013-03-30 22:14:00,
2013-03-30 18:19:00,63.5,32.3,30.06,SW,220,0.0,4.0,31,0.00,,---,0.00,VWS V14.01,2013-03-30 22:19:00,
2013-03-30 18:24:00,63.5,32.3,30.06,South,185,0.0,4.0,31,0.00,,---,0.00,VWS V14.01,2013-03-30 22:24:00,
2013-03-30 18:29:00,63.4,32.3,30.06,SSW,197,0.0,4.0,31,0.00,,---,0.00,VWS V14.01,2013-03-30 22:29:00,
2013-03-30 18:34:00,63.2,33.6,30.06,SSW,197,1.0,1.0,33,0.00,,---,0.00,VWS V14.01,2013-03-30 22:34:00,
2013-03-30 18:39:00,63.1,34.3,30.06,SSW,202,0.0,2.0,34,0.00,,---,0.00,VWS V14.01,2013-03-30 22:39:00,
2013-03-30 18:44:00,62.7,34.0,30.07,SSW,208,0.0,3.0,34,0.00,,---,0.00,VWS V14.01,2013-03-30 22:44:00,
2013-03-30 18:49:00,62.6,33.1,30.06,South,182,0.0,3.0,33,0.00,,---,0.00,VWS V14.01,2013-03-30 22:49:00,
2013-03-30 18:54:00,62.4,33.7,30.06,South,182,0.0,3.0,34,0.00,,---,0.00,VWS V14.01,2013-03-30 22:54:00,
2013-03-30 18:59:00,62.1,34.2,30.06,South,182,0.0,3.0,35,0.00,,---,0.00,VWS V14.01,2013-03-30 22:59:00,
2013-03-30 19:04:00,62.0,35.5,30.07,South,182,0.0,0.0,37,0.00,,---,0.00,VWS V14.01,2013-03-30 23:04:00,
2013-03-30 19:09:00,61.8,35.3,30.07,South,182,0.0,0.0,37,0.00,,---,0.00,VWS V14.01,2013-03-30 23:09:00,
2013-03-30 19:14:00,61.6,35.8,30.07,South,182,0.0,0.0,38,0.00,,---,0.00,VWS V14.01,2013-03-30 23:14:00,
2013-03-30 19:19:00,61.3,35.5,30.07,South,182,0.0,0.0,38,0.00,,---,0.00,VWS V14.01,2013-03-30 23:19:00,
2013-03-30 19:24:00,61.2,36.1,30.07,South,182,0.0,0.0,39,0.00,,---,0.00,VWS V14.01,2013-03-30 23:24:00,
2013-03-30 19:29:00,60.7,36.3,30.07,South,182,0.0,1.0,40,0.00,,---,0.00,VWS V14.01,2013-03-30 23:29:00,
2013-03-30 19:34:00,60.4,36.6,30.07,South,182,0.0,1.0,41,0.00,,---,0.00,VWS V14.01,2013-03-30 23:34:00,
2013-03-30 19:39:00,60.1,36.3,30.07,South,182,0.0,1.0,41,0.00,,---,0.00,VWS V14.01,2013-03-30 23:39:00,
2013-03-30 19:44:00,59.8,36.1,30.07,South,182,0.0,1.0,41,0.00,,---,0.00,VWS V14.01,2013-03-30 23:44:00,
2013-03-30 19:49:00,59.5,36.4,30.07,South,182,0.0,0.0,42,0.00,,---,0.00,VWS V14.01,2013-03-30 23:49:00,
2013-03-30 19:54:00,59.2,36.1,30.07,South,182,0.0,0.0,42,0.00,,---,0.00,VWS V14.01,2013-03-30 23:54:00,
2013-03-30 19:59:00,59.0,36.6,30.07,South,182,0.0,0.0,43,0.00,,---,0.00,VWS V14.01,2013-03-30 23:59:00,
2013-03-30 20:04:00,58.7,36.9,30.07,South,182,0.0,0.0,44,0.00,,---,0.00,VWS V14.01,2013-03-31 00:04:00,
2013-03-30 20:09:00,58.4,36.6,30.07,South,182,0.0,0.0,44,0.00,,---,0.00,VWS V14.01,2013-03-31 00:09:00,
2013-03-30 20:14:00,58.0,36.8,30.07,South,182,0.0,0.0,45,0.00,,---,0.00,VWS V14.01,2013-03-31 00:14:00,
2013-03-30 20:19:00,57.6,37.0,30.07,South,182,0.0,0.0,46,0.00,,---,0.00,VWS V14.01,2013-03-31 00:19:00,
2013-03-30 20:24:00,57.3,36.7,30.07,South,182,0.0,1.0,46,0.00,,---,0.00,VWS V14.01,2013-03-31 00:24:00,
2013-03-30 20:29:00,57.0,37.0,30.07,South,182,0.0,1.0,47,0.00,,---,0.00,VWS V14.01,2013-03-31 00:29:00,
2013-03-30 20:34:00,56.7,36.7,30.07,South,182,0.0,0.0,47,0.00,,---,0.00,VWS V14.01,2013-03-31 00:34:00,
2013-03-30 20:39:00,56.6,36.6,30.07,South,182,0.0,0.0,47,0.00,,---,0.00,VWS V14.01,2013-03-31 00:39:00,
2013-03-30 20:44:00,56.3,36.9,30.08,South,182,0.0,0.0,48,0.00,,---,0.00,VWS V14.01,2013-03-31 00:44:00,
2013-03-30 20:49:00,56.0,37.1,30.07,South,182,1.0,1.0,49,0.00,,---,0.00,VWS V14.01,2013-03-31 00:49:00,
2013-03-30 20:54:00,55.9,37.5,30.07,South,182,0.0,1.0,50,0.00,,---,0.00,VWS V14.01,2013-03-31 00:54:00,
2013-03-30 20:59:00,55.6,37.3,30.07,South,182,0.0,1.0,50,0.00,,---,0.00,VWS V14.01,2013-03-31 00:59:00,
2013-03-30 21:04:00,55.4,37.6,30.07,South,182,0.0,0.0,51,0.00,,---,0.00,VWS V14.01,2013-03-31 01:04:00,
2013-03-30 21:09:00,55.3,37.5,30.07,South,182,0.0,2.0,51,0.00,,---,0.00,VWS V14.01,2013-03-31 01:09:00,
2013-03-30 21:14:00,55.1,37.3,30.07,South,182,0.0,2.0,51,0.00,,---,0.00,VWS V14.01,2013-03-31 01:14:00,
2013-03-30 21:19:00,55.0,37.7,30.07,South,182,0.0,0.0,52,0.00,,---,0.00,VWS V14.01,2013-03-31 01:19:00,
2013-03-30 21:24:00,54.7,37.4,30.06,South,182,0.0,1.0,52,0.00,,---,0.00,VWS V14.01,2013-03-31 01:24:00,
2013-03-30 21:29:00,54.5,37.2,30.06,South,182,0.0,1.0,52,0.00,,---,0.00,VWS V14.01,2013-03-31 01:29:00,
2013-03-30 21:34:00,54.4,37.6,30.07,South,182,0.0,0.0,53,0.00,,---,0.00,VWS V14.01,2013-03-31 01:34:00,
2013-03-30 21:39:00,54.2,37.5,30.07,South,182,0.0,1.0,53,0.00,,---,0.00,VWS V14.01,2013-03-31 01:39:00,
2013-03-30 21:44:00,54.1,37.4,30.07,South,182,0.0,1.0,53,0.00,,---,0.00,VWS V14.01,2013-03-31 01:44:00,
2013-03-30 21:49:00,53.9,37.7,30.06,South,182,0.0,0.0,54,0.00,,---,0.00,VWS V14.01,2013-03-31 01:49:00,
2013-03-30 21:54:00,53.8,37.6,30.06,South,182,0.0,0.0,54,0.00,,---,0.00,VWS V14.01,2013-03-31 01:54:00,
2013-03-30 21:59:00,53.6,37.8,30.07,South,182,0.0,1.0,55,0.00,,---,0.00,VWS V14.01,2013-03-31 01:59:00,
2013-03-30 22:04:00,53.5,37.8,30.06,South,182,0.0,1.0,55,0.00,,---,0.00,VWS V14.01,2013-03-31 02:04:00,
2013-03-30 22:09:00,53.3,37.6,30.06,South,182,0.0,1.0,55,0.00,,---,0.00,VWS V14.01,2013-03-31 02:09:00,
2013-03-30 22:14:00,53.2,37.5,30.06,South,182,0.0,1.0,55,0.00,,---,0.00,VWS V14.01,2013-03-31 02:14:00,
2013-03-30 22:19:00,53.1,37.8,30.06,SSW,206,0.0,3.0,56,0.00,,---,0.00,VWS V14.01,2013-03-31 02:19:00,
2013-03-30 22:24:00,52.9,37.7,30.06,SSW,206,0.0,3.0,56,0.00,,---,0.00,VWS V14.01,2013-03-31 02:24:00,
2013-03-30 22:29:00,52.8,38.0,30.06,SSW,206,0.0,3.0,57,0.00,,---,0.00,VWS V14.01,2013-03-31 02:29:00,
2013-03-30 22:34:00,52.6,37.8,30.06,SSW,206,0.0,0.0,57,0.00,,---,0.00,VWS V14.01,2013-03-31 02:34:00,
2013-03-30 22:39:00,52.5,37.7,30.06,SSW,206,0.0,0.0,57,0.00,,---,0.00,VWS V14.01,2013-03-31 02:39:00,
2013-03-30 22:44:00,52.5,37.7,30.06,SSW,206,0.0,0.0,57,0.00,,---,0.00,VWS V14.01,2013-03-31 02:44:00,
2013-03-30 22:49:00,52.3,37.5,30.06,SSW,206,1.0,2.0,57,0.00,,---,0.00,VWS V14.01,2013-03-31 02:49:00,
2013-03-30 22:54:00,52.2,37.9,30.06,SSW,206,0.0,2.0,58,0.00,,---,0.00,VWS V14.01,2013-03-31 02:54:00,
2013-03-30 22:59:00,52.0,37.7,30.06,SSW,206,0.0,2.0,58,0.00,,---,0.00,VWS V14.01,2013-03-31 02:59:00,
2013-03-30 23:04:00,51.9,37.6,30.05,SSW,206,0.0,0.0,58,0.00,,---,0.00,VWS V14.01,2013-03-31 03:04:00,
2013-03-30 23:09:00,51.7,37.8,30.05,SSW,206,0.0,0.0,59,0.00,,---,0.00,VWS V14.01,2013-03-31 03:09:00,
2013-03-30 23:14:00,51.7,37.8,30.05,SSW,206,0.0,1.0,59,0.00,,---,0.00,VWS V14.01,2013-03-31 03:14:00,
2013-03-30 23:19:00,51.6,38.2,30.05,SSW,203,1.0,2.0,60,0.00,,---,0.00,VWS V14.01,2013-03-31 03:19:00,
2013-03-30 23:24:00,51.4,38.4,30.05,SSW,198,0.0,2.0,61,0.00,,---,0.00,VWS V14.01,2013-03-31 03:24:00,
2013-03-30 23:29:00,51.4,38.8,30.05,SSW,198,0.0,2.0,62,0.00,,---,0.00,VWS V14.01,2013-03-31 03:29:00,
2013-03-30 23:34:00,51.4,38.8,30.05,SSW,197,0.0,2.0,62,0.00,,---,0.00,VWS V14.01,2013-03-31 03:34:00,
2013-03-30 23:39:00,51.4,39.2,30.05,South,170,0.0,3.0,63,0.00,,---,0.00,VWS V14.01,2013-03-31 03:39:00,
2013-03-30 23:44:00,51.4,39.2,30.05,South,170,0.0,3.0,63,0.00,,---,0.00,VWS V14.01,2013-03-31 03:44:00,
2013-03-30 23:49:00,51.4,39.7,30.05,South,170,1.0,1.0,64,0.00,,---,0.00,VWS V14.01,2013-03-31 03:49:00,
2013-03-30 23:54:00,51.6,39.8,30.05,South,178,0.0,2.0,64,0.00,,---,0.00,VWS V14.01,2013-03-31 03:54:00,
2013-03-30 23:59:00,51.7,39.9,30.04,South,178,0.0,2.0,64,0.00,,---,0.00,VWS V14.01,2013-03-31 03:59:00,